Wetbulb
55.49 51.70 49.51 52.34 52.99 54.39 54.27 52.96 54.22 56.08 60.25 58.16 57.11 57.93 61.76 63.92 64.48 63.68 62.86 63.29 63.98 64.43 67.12 68.39 69.63 70.08 69.12 69.39 69.44 68.86 69.49 69.73 70.37 71.82 71.68 71.37 71.29 71.79 71.49 72.61 72.87 71.97 71.47 71.25
51.61 49.56 55.25 55.91 56.14 55.06 54.50 53.46 53.63 56.00 60.26 57.12 56.83 57.05 61.66 63.25 63.50 63.86 63.59 63.66 64.31 64.78 65.81 67.42 68.92 68.03 67.75 68.82 70.11 69.54 70.12 70.10 70.98 71.58 72.59 71.86 71.79 72.67 72.11 73.04 73.06 73.21 72.01 72.19
49.36 53.94 57.36 55.88 54.78 53.24 52.34 51.65 53.60 52.40 57.28 57.42 57.06 55.26 58.74 62.13 63.61 64.47 64.64 65.10 66.67 66.50 65.61 66.52 67.75 68.43 68.53 68.37 70.04 71.59 70.45 71.87 71.53 72.36 72.32 72.71 72.46 72.37 71.32 72.17 72.53 73.19 74.12 72.98
49.82 54.64 55.34 54.25 52.97 53.25 48.90 55.19 56.49 55.74 49.52 46.04 53.91 45.00 54.34 57.07 58.55 61.95 63.35 65.10 64.32 64.91 67.70 68.23 68.97 67.93 69.62 69.69 71.60 72.22 72.33 73.02 72.40 72.88 72.67 72.00 70.95 70.37 71.38 72.27 73.46 73.82 74.06 73.85
48.42 50.18 50.69 51.69 53.90 55.46 52.87 56.21 55.62 55.94 48.42 44.89 47.33 48.35 50.57 53.82 55.06 58.59 63.67 64.58 63.45 62.65 65.89 67.88 68.27 67.75 68.94 72.36 72.39 73.00 73.51 74.40 72.37 72.86 73.43 73.45 72.49 72.83 73.02 72.82 72.55 72.71 73.32 74.24
49.33 52.67 51.75 52.28 54.93 55.70 57.08 53.79 51.07 48.79 45.67 41.42 45.57 49.15 49.57 53.74 54.84 57.24 63.22 64.80 63.27 61.80 66.38 68.34 68.46 67.70 66.80 68.82 73.19 74.10 75.21 74.91 75.29 73.48 74.28 74.81 74.16 73.67 73.33 71.93 71.50 71.01 71.66 72.71
47.57 49.39 51.15 53.26 50.25 53.53 52.52 45.92 40.84 41.32 40.58 40.59 46.68 48.06 50.00 57.29 58.99 59.81 62.23 62.84 63.14 62.36 63.28 63.78 64.95 64.90 67.80 70.11 74.27 75.28 74.53 72.57 73.11 75.03 74.80 74.22 72.91 72.03 71.44 70.85 70.27 70.69 69.80 70.86
42.04 42.52 48.15 52.32 50.84 49.48 50.79 47.63 41.72 37.47 38.63 42.50 48.98 44.94 49.93 58.01 59.76 61.17 62.05 62.83 63.18 62.74 62.51 62.73 63.32 67.08 67.57 69.43 74.01 74.53 73.56 72.67 72.87 73.74 73.50 73.22 72.81 72.33 71.42 71.36 71.61 71.56 70.43 71.71
41.04 43.20 50.83 52.05 52.99 54.62 51.06 46.72 48.59 43.44 40.88 43.00 46.25 51.30 55.71 59.49 61.03 62.65 62.79 62.18 62.31 63.54 64.27 65.12 66.49 65.04 64.22 64.92 66.93 74.31 72.46 72.69 73.50 73.11 72.54 73.01 72.77 71.59 70.96 70.92 71.01 71.77 72.09 71.80
45.48 42.06 48.18 51.03 52.61 54.43 52.66 52.79 46.12 43.71 39.67 41.12 45.95 47.16 47.35 55.45 58.08 61.75 60.92 60.96 62.47 62.45 64.09 67.29 67.26 64.94 64.37 63.82 65.91 69.46 68.58 68.09 69.17 67.94 68.79 69.03 68.11 68.70 68.47 68.33 68.57 69.29 69.81 70.56
45.01 43.29 47.57 46.55 46.01 48.00 50.59 47.14 46.54 45.81 45.00 44.05 41.90 45.45 53.66 54.43 57.71 56.07 58.92 60.11 60.77 64.76 67.08 67.36 67.54 63.73 64.65 68.49 68.08 68.20 67.47 66.95 66.64 66.70 67.24 67.40 67.04 67.06 67.42 67.10 67.22 67.54 67.09 67.76
46.30 41.90 40.79 43.33 47.88 52.96 51.63 49.78 47.47 45.02 42.28 43.75 44.69 45.77 56.50 56.45 58.74 60.88 60.68 63.73 65.26 66.87 66.95 65.70 65.93 65.70 65.30 65.00 65.08 65.48 65.62 65.39 65.90 65.77 66.19 65.61 65.23 65.32 64.01 63.51 64.19 64.41 64.39 65.84
46.29 40.45 39.19 41.64 44.67 50.27 49.45 49.97 47.69 47.52 44.42 43.45 44.97 46.77 57.18 58.12 59.14 60.93 61.44 61.46 60.02 64.42 64.18 64.88 63.95 63.25 62.71 62.58 62.90 63.60 64.31 64.35 64.72 63.65 62.31 61.79 61.59 61.52 61.21 61.27 61.47 61.61 62.24 62.49
53.83 41.64 40.78 39.85 42.74 49.15 48.49 50.71 49.08 47.50 42.60 44.63 46.87 48.69 53.86 56.16 57.80 59.17 59.70 63.10 65.79 63.56 64.24 63.18 62.55 61.43 61.65 62.01 62.24 62.56 63.44 63.63 62.05 61.01 60.37 59.76 59.21 59.39 58.93 59.04 59.20 59.38 59.21 58.85
48.05 45.72 46.98 48.83 51.77 52.17 52.36 51.02 50.80 47.21 47.07 45.66 48.81 50.07 53.37 56.03 57.59 59.10 59.93 62.51 64.18 63.53 63.67 62.97 61.68 60.51 60.58 61.36 61.03 61.57 61.27 61.05 60.28 59.01 58.42 57.56 57.63 57.95 57.79 57.33 57.69 57.81 57.07 57.52
45.90 45.06 47.69 47.07 51.97 52.69 51.19 53.59 51.34 51.25 51.18 50.98 52.13 50.72 56.05 55.50 59.79 59.26 60.49 61.93 63.87 62.35 63.51 62.44 61.71 61.35 60.56 60.23 60.57 60.72 59.14 57.94 57.68 57.09 56.62 56.82 56.44 56.02 55.49 55.76 56.66 57.19 56.92 56.78
45.63 47.34 45.72 43.80 49.98 49.83 46.38 51.74 52.73 53.96 53.62 53.00 50.21 52.61 58.71 58.31 59.41 58.31 59.23 63.80 62.29 62.51 62.25 60.19 59.15 58.43 58.19 58.60 59.10 57.44 56.81 56.61 55.92 55.53 55.15 54.59 55.03 55.55 57.89 58.99 58.13 57.22 57.57 57.62
43.44 45.57 45.84 43.72 45.43 39.94 50.15 54.80 55.67 54.91 55.77 58.54 57.14 58.07 61.90 62.09 62.46 62.07 63.24 62.66 61.79 60.93 59.68 58.07 57.88 56.95 57.51 56.59 56.22 56.37 55.78 54.81 53.84 53.28 53.84 54.91 57.41 56.59 57.68 57.53 56.79 57.19 57.60 57.02
45.78 44.42 43.14 43.08 43.22 47.64 52.43 53.58 53.20 55.60 55.08 60.92 59.33 61.36 61.81 62.64 61.38 60.31 63.09 62.11 59.49 58.19 58.09 58.64 58.09 56.51 54.42 54.94 56.11 54.85 53.52 53.04 53.21 53.50 54.58 56.40 56.49 56.40 56.90 55.77 55.81 56.12 56.12 55.52
45.31 46.70 46.30 44.57 43.24 43.64 51.15 56.33 58.01 58.41 48.73 60.30 62.46 61.57 59.98 59.88 54.53 54.79 59.21 59.86 58.43 58.85 59.27 56.80 55.46 54.21 53.37 54.60 54.83 53.32 52.18 52.35 52.43 53.25 55.32 55.93 55.27 55.16 53.52 54.83 54.60 54.42 52.94 54.18
41.86 43.00 44.04 47.20 45.20 47.73 54.89 57.37 58.10 48.98 51.59 62.46 62.99 62.07 60.83 56.67 57.19 58.06 58.70 57.63 57.90 58.37 56.60 54.88 53.80 52.80 53.02 55.03 53.98 52.18 51.56 51.32 52.82 56.00 57.00 54.79 55.26 52.93 51.97 53.87 53.86 50.68 49.55 49.66
42.71 42.59 43.13 46.57 45.33 43.89 57.46 55.43 50.53 53.24 55.59 61.97 62.19 61.50 57.92 57.67 57.96 57.63 57.33 56.34 55.96 53.74 53.79 53.64 52.09 51.48 52.06 54.89 53.90 51.89 51.56 52.42 53.09 53.37 54.05 54.16 53.24 54.21 52.67 50.41 52.80 51.98 48.51 48.00
47.65 47.65 50.89 48.95 48.73 53.29 55.75 54.90 58.80 56.22 59.00 58.98 59.57 59.53 59.46 57.92 56.93 56.75 54.08 52.23 51.59 51.49 51.38 51.00 50.12 49.98 51.29 54.16 54.34 52.54 52.87 52.35 52.33 52.74 52.21 50.76 51.42 52.94 51.94 49.86 49.28 49.30 48.25 46.60
52.30 53.44 50.89 50.46 54.35 54.74 56.75 57.58 58.47 61.23 60.62 61.59 61.07 60.36 59.44 57.00 56.98 54.68 51.88 50.60 49.68 50.07 49.76 49.67 49.66 49.29 50.36 52.49 53.46 53.30 53.30 52.91 52.26 51.53 50.25 49.64 49.09 49.52 49.55 50.27 50.11 49.10 48.60 47.33
52.26 53.19 51.81 51.71 54.95 56.33 58.98 58.77 61.50 62.11 62.40 61.62 61.37 60.64 59.20 57.74 56.05 52.36 50.28 49.40 48.91 48.65 48.75 48.95 48.36 48.60 49.93 50.03 50.15 50.76 51.68 52.23 51.33 51.17 49.43 48.28 48.98 48.52 49.24 49.51 49.74 49.43 49.67 48.85
54.62 52.30 49.91 49.60 54.92 55.39 55.51 59.21 62.17 60.69 60.52 60.54 59.95 58.70 58.68 56.44 53.11 51.96 50.41 49.91 49.51 48.43 48.51 48.02 47.96 48.06 49.06 49.57 49.06 49.60 50.38 51.07 49.37 48.96 49.56 49.02 47.48 48.75 48.63 49.09 49.22 49.92 49.33 48.71
MSLP
1003.28 1004.12 1004.05 1003.65 1003.73 1003.59 1003.21 1002.89 1002.70 1002.34 1002.62 1003.40 1004.15 1004.85 1005.52 1006.14 1006.72 1007.08 1007.41 1008.13 1008.53 1008.69 1008.71 1009.15 1009.40 1010.00 1010.72 1011.28 1011.53 1011.34 1011.64 1012.08 1012.71 1013.37 1014.01 1014.34 1014.27 1014.14 1014.23 1013.60 1013.45 1013.61 1013.77 1013.88
1004.52 1004.26 1003.29 1003.36 1003.18 1003.13 1002.77 1002.29 1002.20 1001.98 1002.00 1002.98 1004.21 1004.68 1005.38 1005.72 1005.75 1006.17 1007.15 1007.90 1008.86 1009.50 1009.43 1009.25 1009.67 1010.08 1010.50 1010.61 1011.21 1011.54 1011.32 1011.65 1012.02 1012.42 1012.78 1013.16 1013.59 1013.62 1013.70 1013.24 1013.16 1013.05 1013.20 1013.34
1004.47 1003.00 1002.92 1003.27 1002.71 1002.71 1002.14 1002.07 1001.85 1001.73 1002.10 1002.88 1004.16 1005.54 1005.89 1005.93 1006.15 1006.58 1007.65 1009.71 1010.43 1011.65 1011.29 1011.59 1011.03 1010.25 1010.17 1010.44 1010.60 1010.86 1011.21 1011.42 1011.87 1011.72 1012.53 1013.21 1013.34 1013.57 1013.64 1013.28 1012.73 1012.53 1012.47 1012.56
1003.99 1002.59 1002.87 1002.84 1002.36 1001.86 1001.61 1001.05 1001.33 1001.66 1002.45 1003.59 1003.82 1006.06 1006.27 1006.66 1006.63 1007.42 1008.12 1009.42 1009.87 1009.84 1009.75 1010.51 1010.34 1010.63 1010.44 1010.24 1010.39 1010.64 1011.02 1011.32 1011.25 1011.79 1012.42 1012.88 1013.26 1013.30 1013.03 1012.79 1012.53 1012.31 1011.87 1011.93
1003.04 1002.61 1002.50 1002.32 1001.46 1001.20 1001.20 1000.75 1000.68 1001.53 1003.11 1004.00 1004.79 1006.00 1006.94 1007.22 1007.65 1007.92 1008.26 1009.02 1009.01 1008.53 1008.37 1009.14 1009.52 1010.27 1009.77 1010.50 1010.42 1010.45 1010.90 1011.21 1011.49 1011.96 1012.02 1012.62 1012.63 1012.68 1012.40 1012.49 1012.43 1012.19 1011.83 1011.55
1003.16 1002.14 1002.06 1001.22 1000.59 1000.72 1000.63 1000.98 1001.57 1002.93 1004.10 1005.25 1005.56 1006.11 1006.86 1006.53 1008.11 1009.29 1008.94 1009.53 1009.14 1008.64 1008.76 1009.43 1010.96 1011.08 1010.48 1009.84 1010.33 1010.25 1010.59 1011.06 1011.41 1012.13 1012.23 1012.01 1012.13 1012.03 1012.01 1012.18 1012.27 1012.15 1011.87 1011.59
1003.35 1002.50 1001.57 1001.11 1000.84 1000.39 1001.08 1001.97 1003.52 1004.84 1005.96 1006.40 1005.99 1006.25 1006.27 1005.88 1006.99 1008.06 1009.40 1009.58 1009.59 1009.32 1010.11 1011.07 1011.84 1012.59 1011.46 1010.10 1009.77 1009.94 1010.27 1011.24 1011.57 1011.54 1012.00 1011.78 1011.97 1012.05 1011.97 1011.98 1011.95 1011.82 1011.79 1011.65
1003.95 1002.79 1001.42 1000.58 1000.51 1000.73 1001.21 1002.06 1003.90 1005.68 1007.11 1007.11 1006.93 1007.36 1006.76 1008.10 1008.12 1009.01 1009.77 1010.36 1011.05 1012.45 1013.00 1014.62 1012.88 1012.91 1011.87 1011.04 1010.24 1010.01 1009.68 1010.40 1011.42 1011.71 1012.23 1012.13 1012.04 1012.19 1012.09 1011.95 1011.95 1011.90 1011.64 1011.49
1003.69 1002.51 1001.00 1000.56 1000.01 1000.44 1001.07 1001.98 1002.73 1005.01 1006.89 1007.71 1008.33 1008.22 1007.40 1008.86 1008.87 1009.46 1011.11 1012.14 1013.26 1012.98 1014.01 1014.74 1014.72 1013.17 1011.85 1011.58 1011.12 1007.84 1008.75 1009.83 1011.36 1012.07 1012.52 1012.48 1012.55 1012.52 1012.57 1012.52 1012.38 1012.44 1012.15 1011.57
1002.98 1003.04 1001.40 1000.60 1000.17 999.87 1000.27 1001.10 1003.23 1005.48 1007.25 1008.83 1009.33 1009.20 1009.19 1009.82 1010.93 1011.22 1011.59 1012.36 1012.64 1011.57 1012.59 1014.59 1014.69 1011.27 1011.94 1012.79 1013.02 1010.41 1010.21 1011.18 1012.18 1013.07 1012.95 1013.24 1013.35 1013.33 1013.22 1013.00 1013.03 1012.84 1012.83 1012.31
1002.51 1003.14 1001.68 1001.50 1001.04 1000.96 1000.69 1001.38 1003.15 1005.06 1006.72 1008.50 1009.77 1010.02 1009.47 1010.10 1010.97 1011.13 1011.71 1012.21 1011.84 1011.78 1012.53 1013.34 1013.51 1012.58 1013.52 1014.00 1012.69 1011.89 1011.94 1012.45 1013.37 1013.80 1013.81 1014.00 1014.08 1014.14 1014.06 1013.87 1013.64 1013.32 1013.15 1012.83
1001.74 1002.69 1003.02 1002.19 1000.71 1000.56 1000.38 1001.06 1002.60 1005.03 1007.08 1008.57 1009.45 1009.78 1009.62 1009.87 1010.47 1011.06 1012.18 1012.28 1011.50 1011.26 1013.13 1014.54 1013.47 1013.84 1013.74 1013.87 1013.94 1013.46 1013.38 1013.71 1014.25 1014.43 1014.48 1014.77 1014.92 1014.95 1014.75 1014.70 1014.45 1014.02 1013.63 1013.31
1001.23 1002.46 1003.32 1002.87 1001.76 1000.53 1000.64 1000.92 1002.29 1004.12 1006.29 1008.28 1009.47 1009.47 1009.33 1009.72 1010.41 1011.35 1011.79 1012.44 1012.00 1011.45 1013.60 1014.42 1013.58 1013.63 1013.87 1014.32 1014.22 1014.12 1014.38 1014.75 1014.85 1014.59 1014.90 1015.39 1015.53 1015.49 1015.44 1015.09 1014.80 1014.32 1014.01 1013.73
1000.04 1002.04 1002.96 1003.22 1002.56 1001.82 1001.30 1001.32 1002.16 1003.39 1006.09 1008.12 1008.71 1008.93 1009.16 1009.64 1009.86 1010.85 1011.93 1012.61 1012.77 1013.31 1013.65 1013.88 1013.63 1013.75 1013.91 1014.52 1014.75 1014.72 1014.91 1015.14 1015.12 1015.28 1015.78 1016.14 1016.15 1015.89 1015.68 1015.44 1015.17 1014.68 1014.35 1014.02
999.91 1002.12 1002.59 1002.52 1002.13 1002.03 1001.65 1001.26 1002.08 1003.22 1004.35 1005.84 1007.58 1008.38 1008.36 1009.14 1009.36 1010.36 1011.00 1011.78 1012.11 1012.68 1013.22 1013.72 1013.76 1013.92 1014.40 1014.88 1015.16 1015.24 1015.36 1015.49 1015.77 1016.18 1016.53 1016.71 1016.54 1016.29 1016.02 1015.68 1015.25 1014.84 1014.55 1014.23
999.82 1001.64 1002.59 1003.08 1002.21 1001.86 1001.52 1001.51 1002.04 1002.62 1004.30 1004.95 1006.23 1007.81 1007.90 1008.62 1009.85 1010.46 1011.16 1011.62 1012.59 1012.94 1013.26 1013.63 1013.65 1013.77 1014.86 1015.20 1015.45 1015.74 1016.01 1016.38 1016.66 1017.00 1017.23 1017.11 1016.82 1016.37 1015.91 1015.48 1015.08 1014.72 1014.42 1014.09
1000.17 1001.51 1003.04 1003.42 1002.60 1002.29 1002.23 1002.31 1002.17 1002.54 1003.65 1004.44 1005.78 1006.89 1007.66 1008.78 1009.56 1010.22 1010.86 1011.44 1012.39 1012.75 1013.31 1013.68 1014.01 1014.74 1015.26 1015.74 1015.87 1016.21 1017.08 1017.37 1017.43 1017.58 1017.48 1017.27 1016.84 1016.40 1015.83 1015.47 1015.21 1014.96 1014.56 1014.30
1000.40 1001.85 1002.87 1003.88 1003.72 1003.41 1002.49 1000.86 1000.42 1001.74 1003.42 1003.97 1005.24 1006.86 1007.38 1008.10 1009.34 1010.12 1010.61 1011.46 1012.29 1013.04 1013.53 1013.86 1014.53 1015.40 1015.90 1016.07 1016.71 1017.39 1017.64 1017.64 1017.65 1017.64 1017.52 1017.29 1016.84 1016.59 1016.19 1015.95 1015.70 1015.38 1015.12 1014.83
999.51 1001.50 1003.15 1004.23 1004.99 1003.73 1002.76 1001.38 1001.73 1001.52 1003.60 1003.94 1005.23 1006.60 1007.62 1008.53 1009.46 1010.85 1010.96 1011.62 1012.22 1012.73 1013.50 1014.49 1015.20 1015.78 1016.40 1016.92 1017.36 1017.51 1017.73 1017.78 1017.76 1017.77 1017.57 1017.31 1016.98 1016.66 1016.44 1016.18 1015.94 1015.70 1015.40 1015.02
1000.00 1000.44 1002.45 1004.53 1004.91 1004.21 1003.05 1001.98 1001.58 1002.38 1003.80 1004.11 1004.60 1006.27 1007.18 1008.59 1010.01 1011.05 1011.47 1011.97 1012.62 1013.27 1014.07 1014.85 1015.60 1016.06 1016.51 1017.20 1017.26 1017.52 1018.05 1018.03 1018.04 1017.79 1017.47 1017.19 1017.00 1016.90 1016.68 1016.41 1016.22 1016.03 1015.80 1015.44
1001.52 1002.36 1003.27 1003.90 1004.35 1003.80 1002.63 1002.18 1002.90 1003.34 1003.47 1003.55 1004.23 1005.50 1006.74 1007.59 1008.41 1010.36 1011.79 1012.52 1012.74 1013.51 1014.43 1015.21 1015.81 1016.41 1016.95 1017.30 1017.48 1018.04 1018.13 1018.06 1017.87 1017.42 1017.27 1017.23 1017.16 1017.06 1016.82 1016.58 1016.46 1016.23 1016.15 1015.92
1001.28 1002.56 1003.62 1003.85 1003.92 1003.27 1002.14 1002.93 1002.65 1002.15 1002.63 1003.45 1004.33 1005.35 1006.89 1008.13 1009.33 1010.66 1011.91 1012.60 1013.22 1014.10 1015.12 1015.75 1016.32 1016.82 1017.08 1017.37 1017.63 1018.16 1018.09 1017.85 1017.68 1017.66 1017.51 1017.36 1017.24 1017.09 1016.92 1016.63 1016.42 1016.15 1016.33 1016.22
1002.43 1002.32 1002.24 1002.47 1002.18 1001.15 1001.28 1001.48 1001.47 1001.52 1002.42 1003.71 1004.64 1005.96 1006.76 1008.69 1010.15 1011.08 1012.34 1013.16 1013.79 1014.44 1015.28 1015.91 1016.23 1016.76 1017.14 1017.42 1017.75 1018.05 1017.90 1017.72 1017.62 1017.61 1017.65 1017.56 1017.31 1017.02 1016.83 1016.74 1016.58 1016.28 1016.28 1016.27
1003.19 1002.15 1002.03 1001.96 1002.18 1001.64 1001.91 1001.86 1001.78 1001.97 1002.53 1003.55 1004.63 1006.06 1007.50 1009.10 1010.36 1011.45 1012.60 1013.49 1014.25 1014.95 1015.60 1016.13 1016.66 1017.29 1017.83 1017.87 1017.96 1017.96 1017.84 1017.63 1017.64 1017.70 1017.70 1017.55 1017.38 1017.14 1016.79 1016.61 1016.45 1016.34 1016.19 1016.12
1004.19 1003.20 1002.86 1002.64 1002.24 1002.09 1002.25 1002.16 1002.42 1003.42 1004.21 1004.69 1006.00 1006.97 1008.17 1009.19 1010.71 1011.84 1013.11 1014.07 1014.87 1015.59 1016.16 1016.55 1017.18 1017.63 1017.99 1017.95 1017.94 1017.77 1017.64 1017.59 1017.76 1017.78 1017.67 1017.58 1017.32 1017.12 1016.89 1016.53 1016.28 1016.19 1015.77 1015.63
1004.08 1003.52 1003.27 1002.74 1002.19 1002.15 1003.01 1003.10 1002.51 1003.37 1004.98 1005.91 1006.65 1008.36 1009.39 1009.58 1011.17 1012.36 1013.69 1014.58 1015.36 1016.03 1016.47 1017.03 1017.46 1017.68 1018.00 1017.98 1017.89 1017.70 1017.52 1017.55 1017.69 1017.61 1017.36 1017.25 1017.15 1016.88 1016.74 1016.53 1016.06 1015.23 1015.18 1014.76
Wind_Speed
8 3 8 11 6 8 13 6 4 4 10 8 12 8 20 19 15 14 12 13 15 17 14 15 16 15 9 7 11 13 13 11 9 6 6 4 6 5 5 6 9 8 6 8
5 8 14 7 11 10 11 3 6 9 12 6 8 11 17 18 18 17 16 15 11 7 7 11 13 14 14 14 10 9 11 10 10 8 6 3 3 3 4 4 6 8 6 8
7 16 4 6 14 10 10 5 8 8 9 5 7 4 10 9 7 11 9 15 16 5 7 8 7 12 13 13 14 11 9 9 8 7 4 2 2 1 1 4 4 7 8 9
7 11 12 9 11 5 8 7 11 8 7 7 4 5 5 3 6 7 12 16 20 14 11 8 8 7 11 13 10 9 7 9 8 8 5 6 4 4 4 3 3 5 6 7
13 4 6 7 17 8 12 9 4 3 4 4 5 7 6 3 0 9 15 19 16 13 21 17 19 9 6 10 11 10 7 7 6 7 5 4 4 4 3 2 4 4 5 6
9 5 5 12 16 6 9 3 8 6 4 4 5 7 4 6 6 4 9 13 17 22 18 15 10 8 6 4 12 9 9 6 6 6 6 6 5 4 2 2 3 3 3 4
8 10 8 5 5 7 1 8 4 6 6 7 6 5 7 5 8 11 13 13 14 14 7 5 10 11 10 4 10 9 10 7 4 6 3 3 3 2 3 2 2 2 2 2
6 11 4 4 8 9 8 9 8 5 3 6 3 1 4 7 11 10 12 10 6 5 13 12 10 7 10 13 3 9 11 8 6 6 3 3 2 1 1 2 2 3 2 3
4 9 7 4 7 10 7 1 7 7 3 5 1 4 6 15 9 9 11 13 11 9 14 14 4 12 18 19 20 9 7 10 7 2 3 3 5 4 5 7 5 4 5 4
7 5 6 9 3 7 9 6 2 4 2 1 2 2 4 8 9 14 15 16 9 4 14 9 13 24 22 24 22 15 11 14 10 9 7 8 8 9 7 6 7 7 8 9
7 6 21 3 3 9 3 1 5 7 6 7 4 6 3 4 12 15 14 16 8 4 5 5 14 16 10 8 6 9 11 11 9 7 8 9 9 9 9 9 9 9 8 9
9 7 8 13 11 5 7 11 7 6 3 3 4 5 2 6 11 17 15 17 12 3 5 6 9 9 11 9 7 9 8 9 6 5 9 9 8 7 8 7 7 8 8 8
8 3 4 12 10 6 3 4 6 8 5 3 7 7 2 7 7 10 18 12 9 13 5 5 6 9 8 7 5 7 7 6 6 9 9 8 7 7 6 6 6 8 8 9
12 5 9 10 9 3 3 3 3 9 6 7 5 5 5 4 5 6 14 10 9 7 6 3 6 6 6 7 5 7 7 7 8 9 8 7 6 7 7 7 6 6 6 6
10 7 4 5 5 5 5 6 5 5 9 8 9 9 12 12 11 7 9 5 7 6 4 5 5 6 7 6 7 7 8 9 7 9 8 7 6 5 5 5 5 5 5 6
1 4 5 4 5 7 6 2 6 6 5 9 14 2 5 4 7 7 9 8 6 6 5 4 4 8 8 7 7 9 9 9 8 7 6 5 5 5 5 6 6 6 6 6
7 7 5 5 4 3 5 3 5 5 5 8 10 6 7 7 10 15 12 11 10 8 6 5 7 8 7 7 8 9 7 6 7 5 4 5 5 6 7 9 9 10 11 11
8 8 4 3 6 2 7 10 12 12 7 8 10 9 8 12 8 12 11 16 12 9 8 10 9 6 7 7 9 7 6 6 6 6 6 6 7 7 7 7 8 8 8 8
5 7 5 7 3 3 5 6 2 19 1 10 15 15 15 14 15 7 12 9 8 8 8 9 9 8 7 8 7 8 7 6 7 6 6 6 5 5 6 7 8 8 7 6
7 6 8 5 6 5 7 2 2 6 1 8 23 22 26 20 11 5 8 12 10 12 12 12 10 7 9 6 7 9 6 6 5 4 5 3 5 6 5 6 7 8 7 8
4 4 8 5 5 3 6 5 2 2 11 17 20 21 19 8 8 12 13 9 11 15 13 9 8 8 7 7 7 7 5 4 1 4 4 3 3 4 3 5 4 4 5 5
8 8 4 5 5 3 8 2 9 8 5 12 11 12 8 16 19 18 14 12 16 15 12 10 9 7 6 7 7 6 4 2 2 4 5 5 3 2 2 4 3 4 5 6
4 4 8 8 9 4 6 7 3 5 11 5 11 13 21 20 18 17 14 13 11 13 10 6 8 8 6 7 6 5 2 1 4 4 3 2 3 2 1 1 2 3 3 3
5 5 4 6 6 5 5 4 4 10 10 13 19 20 20 21 17 16 14 11 10 9 9 6 8 8 6 5 4 2 3 3 4 4 1 2 0 2 3 2 1 2 3 4
4 6 1 5 5 7 6 8 16 15 16 18 16 18 19 20 15 15 12 11 9 8 7 7 7 6 5 4 3 2 3 3 4 4 3 4 4 4 4 5 4 4 5 5
1 1 4 5 8 7 3 4 19 22 17 16 21 16 12 19 16 15 11 8 8 8 7 7 6 7 5 4 1 2 3 3 3 4 5 3 3 5 4 4 7 7 12 12
Wind_Direction
299 16 252 261 229 250 276 244 246 213 186 152 194 158 177 182 187 188 175 174 170 178 190 176 175 176 167 177 184 185 176 179 167 166 176 193 211 218 232 229 222 211 209 208
335 234 245 256 268 268 269 153 264 288 181 125 174 200 179 186 194 187 178 182 168 182 167 174 171 173 179 187 187 210 195 175 185 186 188 171 171 197 223 231 236 220 204 206
194 243 259 247 277 272 278 183 233 208 162 202 122 9 189 206 214 185 168 93 89 13 52 350 323 197 193 196 195 204 188 177 198 174 119 79 77 337 316 243 249 230 216 210
229 264 246 267 271 275 268 220 201 230 123 202 174 222 213 349 261 132 131 123 136 165 180 223 247 225 215 210 205 205 190 176 188 151 172 179 199 204 223 231 246 269 227 216
248 273 273 266 250 258 249 248 308 151 169 55 355 76 266 55 230 146 148 154 175 182 181 189 212 230 200 213 204 197 181 168 167 195 167 174 202 230 226 233 269 287 287 238
244 285 189 236 265 249 276 257 36 56 87 35 269 126 267 170 143 309 154 159 177 187 197 190 178 249 288 253 211 186 167 170 176 176 187 189 229 256 242 270 296 306 288 274
307 281 278 228 281 321 41 61 1 1 10 227 228 82 207 247 99 161 159 190 196 206 185 295 7 21 347 298 195 167 142 131 150 140 171 185 217 182 221 208 226 276 303 297
195 294 198 242 184 214 228 146 152 192 205 263 31 50 279 67 73 127 151 165 192 345 355 10 18 5 356 353 166 134 134 127 105 102 164 198 182 199 239 222 238 268 240 258
183 267 292 274 251 144 252 149 191 117 132 74 251 330 312 69 60 56 100 83 59 20 333 343 318 76 13 334 289 149 91 102 105 80 323 317 358 328 347 349 353 347 326 313
224 293 248 291 358 283 163 172 80 8 117 90 351 145 236 71 90 82 90 89 94 67 307 274 176 134 187 214 234 69 75 68 77 49 33 64 39 43 44 38 26 28 5 6
152 128 274 7 175 247 273 348 65 116 122 153 150 252 244 168 144 130 120 123 155 178 19 272 135 161 197 214 82 77 68 81 51 47 45 41 33 33 30 27 21 22 8 359
192 160 232 240 269 222 228 193 156 135 239 79 126 259 169 244 158 136 118 125 121 97 343 296 99 106 93 70 55 70 56 78 66 63 61 52 46 32 36 21 9 9 8 4
171 241 264 316 343 357 214 166 125 101 78 186 127 253 127 179 177 87 132 142 173 150 163 245 92 92 95 95 74 82 76 58 65 71 65 52 40 35 24 13 1 10 10 8
122 124 162 212 215 210 24 70 115 120 120 156 204 187 237 227 228 128 119 135 166 157 131 122 86 90 103 104 104 80 76 83 75 63 56 47 28 23 15 2 359 7 359 6
124 151 149 198 208 209 189 80 150 143 164 136 199 181 212 193 202 161 129 116 97 114 144 148 135 125 98 85 78 83 70 65 65 63 51 32 20 24 9 356 351 348 360 354
10 172 129 222 281 251 153 226 153 89 93 76 144 169 220 140 107 147 149 128 150 181 186 170 180 96 92 89 84 78 71 58 61 59 45 18 11 2 356 350 351 359 3 357
117 128 100 243 191 359 18 10 233 124 102 156 140 154 138 148 149 164 156 148 173 184 182 184 94 105 99 90 96 77 76 70 63 58 22 7 4 0 7 11 12 5 4 359
135 115 109 152 50 131 253 300 187 127 107 104 90 116 132 137 129 139 152 161 175 172 149 114 113 108 95 88 85 97 82 70 61 39 17 9 14 9 8 11 4 1 358 355
157 127 120 117 156 234 329 333 93 125 203 137 123 125 121 126 111 104 151 156 145 134 117 121 120 116 114 108 112 97 71 61 47 24 17 12 360 353 5 11 11 5 356 354
80 105 123 102 113 163 197 337 237 129 65 177 141 146 138 132 133 189 154 131 122 120 125 124 121 116 98 113 104 86 78 70 49 30 26 350 7 30 30 21 20 8 0 354
123 50 141 105 129 268 222 133 108 164 217 165 154 155 160 142 155 146 138 130 112 121 120 111 101 102 108 119 103 95 94 80 79 21 11 3 42 33 21 45 32 12 5 347
152 133 150 90 88 244 175 148 169 206 95 157 152 149 109 117 120 127 127 117 117 117 118 118 112 105 101 120 103 106 88 266 351 354 357 11 3 27 19 94 33 348 11 351
30 179 163 152 202 248 114 163 196 133 135 144 123 130 128 128 128 124 120 117 111 115 113 109 107 92 60 97 109 113 221 274 18 14 14 34 53 94 337 348 360 315 359 343
304 19 93 83 326 62 88 65 86 139 127 130 132 133 133 130 129 117 118 113 106 108 110 107 95 91 86 95 98 151 241 333 30 3 220 238 39 314 322 327 305 293 299 308
254 345 28 87 66 70 50 105 108 97 105 112 117 131 134 127 121 124 118 114 114 112 109 110 112 112 123 115 87 47 23 32 24 4 286 278 265 265 283 275 244 254 259 215
348 234 134 170 194 133 100 97 122 127 124 125 127 120 122 123 126 123 119 120 121 118 114 104 120 120 126 120 93 344 357 42 23 332 308 288 274 260 260 276 305 246 237 260